Location: Observatoire
(46.1952°N, 5.3391°E)
Time: 18:20:29
(UTC+01:00)

Injun/Solrad 3 - Pass Details

Date: 20 February 2026
Orbit: 872 x 984 km, 66.8° (Epoch: 8 March)

Event Time Altitude Azimuth Distance (km) Brightness Sun altitude
Rises 21:24:03 0° 317° (NW) 3,590 11.8 -33.5°
Reaches altitude 10° 21:27:01 10° 304° (NW) 2,661 11.1 -34.0°
Maximum altitude 21:31:49 24° 253° (WSW) 1,863 9.8 -34.7°
Enters shadow 21:34:29 18° 219° (SW) 2,150 9.9 -35.2°
